User: anonymous   Login
Location: PFO Observatory
(45.2937°N, 66.0991°W)
Time: 00:39:10
(UTC-03:00)
Language:

Cosmos 1151 Rocket - Orbit

View from above orbital plane
View from above orbital plane
View from above satellite
View from above satellite

Ground track
Ground track

The orbit data is extracted from the following two-line orbital elements,

1 11672U 80005B   16180.15761374  .00000093  00000-0  74168-5 0  9993
2 11672  82.5157  53.5136 0018077  55.5047 304.7874 14.87794273970752
Epoch (UTC): 28 June 2016 03:46:57
Eccentricity: 0.0018077
inclination: 82.5157°
perigee height: 592 km
apogee height: 617 km
right ascension of ascending node: 53.5136°
argument of perigee: 55.5047°
revolutions per day: 14.87794273
mean anomaly at epoch: 304.7874°
orbit number at epoch: 97075

The dashed part of the orbit path shows where the satellite is in the earth's shadow,  

DLR